contact:dominique.lefevre@mio.osupytheas.fr, maurice.libes@osupytheas.fr, didier.mallarino@osupytheas.fr
Project:EMSO http://www.emso-fr.org/EMSO-France
Depth: 2436.0 m
Title:EMSO Ligure Ouest : Data MII capteur CSTAR
DateTime,Latitude,Longitude,Instrument_Serial,Reference_Counts,Signal_Counts,Corrected_Signal_raw_counts,Calculated_Beam_c_inverse_meters,Internal_thermistor_counts
DateTime,Latitude,Longitude,Instrument_Serial,Reference_Counts,Signal_Counts,Corrected_Signal_raw_counts,Calculated_Beam_c_inverse_meters,Internal_thermistor_counts
2022-04-09T00:01:18,42.805,6.029,CST-1368DR,4812,5655,12537,0.878,551
2022-04-09T00:04:20,42.805,6.029,CST-1368DR,4812,5645,12514,0.886,551
2022-04-09T00:07:21,42.805,6.029,CST-1368DR,4812,5651,12529,0.881,551
2022-04-09T00:10:23,42.805,6.029,CST-1368DR,4812,5647,12520,0.884,551
2022-04-09T00:13:24,42.805,6.029,CST-1368DR,4812,5637,12498,0.891,551
2022-04-09T00:16:26,42.805,6.029,CST-1368DR,4812,5641,12507,0.888,551
2022-04-09T00:19:27,42.805,6.029,CST-1368DR,4812,5641,12507,0.888,551
2022-04-09T00:22:29,42.805,6.029,CST-1368DR,4812,5644,12513,0.886,551
2022-04-09T00:25:31,42.805,6.029,CST-1368DR,4812,5649,12525,0.882,551
2022-04-09T00:28:32,42.805,6.029,CST-1368DR,4812,5645,12516,0.885,551
2022-04-09T00:31:34,42.805,6.029,CST-1368DR,4812,5641,12506,0.888,551
2022-04-09T00:34:35,42.805,6.029,CST-1368DR,4812,5638,12499,0.891,551
2022-04-09T00:37:37,42.805,6.029,CST-1368DR,4812,5635,12492,0.893,551
2022-04-09T00:40:38,42.805,6.029,CST-1368DR,4812,5647,12519,0.884,551
2022-04-09T00:43:40,42.805,6.029,CST-1368DR,4812,5638,12501,0.890,551
2022-04-09T00:46:42,42.805,6.029,CST-1368DR,4812,5644,12512,0.886,551
2022-04-09T00:49:43,42.805,6.029,CST-1368DR,4812,5649,12523,0.883,551
2022-04-09T00:52:45,42.805,6.029,CST-1368DR,4812,5653,12533,0.880,551
2022-04-09T00:55:46,42.805,6.029,CST-1368DR,4812,5648,12523,0.883,551
2022-04-09T00:58:48,42.805,6.029,CST-1368DR,4812,5652,12531,0.880,551
2022-04-09T01:01:50,42.805,6.029,CST-1368DR,4812,5640,12503,0.889,551
2022-04-09T01:04:51,42.805,6.029,CST-1368DR,4812,5643,12511,0.887,551
2022-04-09T01:07:53,42.805,6.029,CST-1368DR,4812,5647,12519,0.884,551
2022-04-09T01:10:54,42.805,6.029,CST-1368DR,4812,5665,12559,0.871,551
2022-04-09T01:13:56,42.805,6.029,CST-1368DR,4812,5666,12563,0.870,551
2022-04-09T01:16:57,42.805,6.029,CST-1368DR,4812,5652,12532,0.880,551
2022-04-09T01:19:59,42.805,6.029,CST-1368DR,4812,5656,12540,0.877,551
2022-04-09T01:23:01,42.805,6.029,CST-1368DR,4812,5655,12538,0.878,551
2022-04-09T01:26:02,42.805,6.029,CST-1368DR,4812,5658,12544,0.876,551
2022-04-09T01:29:04,42.805,6.029,CST-1368DR,4812,5644,12512,0.886,551
2022-04-09T01:50:07,42.805,6.029,CST-1368DR,4812,5656,12540,0.877,551
2022-04-09T01:53:08,42.805,6.029,CST-1368DR,4812,5653,12533,0.880,551
2022-04-09T01:56:10,42.805,6.029,CST-1368DR,4812,5649,12524,0.883,551
2022-04-09T01:59:11,42.805,6.029,CST-1368DR,4812,5659,12545,0.876,551
2022-04-09T02:02:13,42.805,6.029,CST-1368DR,4812,5652,12532,0.880,551
2022-04-09T02:05:14,42.805,6.029,CST-1368DR,4812,5655,12537,0.878,551
2022-04-09T02:08:16,42.805,6.029,CST-1368DR,4812,5653,12533,0.880,551
2022-04-09T02:11:18,42.805,6.029,CST-1368DR,4812,5647,12521,0.884,551
2022-04-09T02:14:19,42.805,6.029,CST-1368DR,4812,5655,12538,0.878,551
2022-04-09T02:17:21,42.805,6.029,CST-1368DR,4812,5648,12523,0.883,551
2022-04-09T02:20:22,42.805,6.029,CST-1368DR,4812,5654,12535,0.879,551
2022-04-09T02:23:24,42.805,6.029,CST-1368DR,4812,5651,12529,0.881,551
2022-04-09T02:26:25,42.805,6.029,CST-1368DR,4812,5650,12526,0.882,551
2022-04-09T02:29:27,42.805,6.029,CST-1368DR,4812,5647,12521,0.884,551
2022-04-09T02:32:29,42.805,6.029,CST-1368DR,4812,5647,12519,0.884,551
2022-04-09T02:35:30,42.805,6.029,CST-1368DR,4812,5651,12528,0.881,551
2022-04-09T02:38:32,42.805,6.029,CST-1368DR,4812,5652,12530,0.881,551
2022-04-09T02:41:33,42.805,6.029,CST-1368DR,4812,5651,12529,0.881,551
2022-04-09T02:44:35,42.805,6.029,CST-1368DR,4812,5647,12519,0.884,551
2022-04-09T02:47:37,42.805,6.029,CST-1368DR,4812,5651,12529,0.881,551
2022-04-09T02:50:38,42.805,6.029,CST-1368DR,4812,5650,12527,0.882,551
2022-04-09T02:53:40,42.805,6.029,CST-1368DR,4812,5651,12528,0.881,551
2022-04-09T02:56:41,42.805,6.029,CST-1368DR,4812,5654,12534,0.879,551
2022-04-09T02:59:43,42.805,6.029,CST-1368DR,4812,5651,12529,0.881,551
2022-04-09T03:02:44,42.805,6.029,CST-1368DR,4812,5647,12519,0.884,551
2022-04-09T03:05:46,42.805,6.029,CST-1368DR,4812,5647,12521,0.884,551
2022-04-09T03:08:48,42.805,6.029,CST-1368DR,4812,5643,12510,0.887,551
2022-04-09T03:11:49,42.805,6.029,CST-1368DR,4812,5651,12528,0.881,551
2022-04-09T03:14:51,42.805,6.029,CST-1368DR,4812,5650,12526,0.882,551
2022-04-09T03:17:52,42.805,6.029,CST-1368DR,4812,5647,12519,0.884,551
2022-04-09T03:20:54,42.805,6.029,CST-1368DR,4812,5651,12528,0.881,551
2022-04-09T03:23:55,42.805,6.029,CST-1368DR,4812,5657,12543,0.877,551
2022-04-09T03:26:57,42.805,6.029,CST-1368DR,4812,5655,12538,0.878,551
2022-04-09T03:29:59,42.805,6.029,CST-1368DR,4812,5656,12539,0.878,551
2022-04-09T03:33:00,42.805,6.029,CST-1368DR,4812,5642,12508,0.888,551
2022-04-09T03:36:02,42.805,6.029,CST-1368DR,4812,5650,12526,0.882,551
2022-04-09T03:39:03,42.805,6.029,CST-1368DR,4812,5648,12523,0.883,551
2022-04-09T03:42:05,42.805,6.029,CST-1368DR,4812,5640,12505,0.889,551
2022-04-09T03:45:07,42.805,6.029,CST-1368DR,4812,5642,12508,0.888,551
2022-04-09T03:48:08,42.805,6.029,CST-1368DR,4812,5652,12530,0.881,551
2022-04-09T03:51:10,42.805,6.029,CST-1368DR,4812,5644,12513,0.886,551
2022-04-09T03:54:11,42.805,6.029,CST-1368DR,4812,5639,12501,0.890,551
2022-04-09T03:57:13,42.805,6.029,CST-1368DR,4812,5640,12503,0.889,551
2022-04-09T04:00:14,42.805,6.029,CST-1368DR,4812,5648,12521,0.884,551
2022-04-09T04:03:16,42.805,6.029,CST-1368DR,4812,5643,12511,0.887,551
2022-04-09T04:06:18,42.805,6.029,CST-1368DR,4812,5651,12529,0.881,551
2022-04-09T04:09:19,42.805,6.029,CST-1368DR,4812,5652,12532,0.880,551
2022-04-09T04:12:21,42.805,6.029,CST-1368DR,4812,5638,12501,0.890,551
2022-04-09T04:15:22,42.805,6.029,CST-1368DR,4812,5645,12515,0.885,551
2022-04-09T04:18:24,42.805,6.029,CST-1368DR,4812,5652,12531,0.880,551
2022-04-09T04:21:25,42.805,6.029,CST-1368DR,4812,5657,12541,0.877,551
2022-04-09T04:24:27,42.805,6.029,CST-1368DR,4812,5640,12503,0.889,551
2022-04-09T04:27:29,42.805,6.029,CST-1368DR,4812,5652,12530,0.881,551
2022-04-09T04:30:30,42.805,6.029,CST-1368DR,4812,5652,12530,0.881,551
2022-04-09T04:33:32,42.805,6.029,CST-1368DR,4812,5650,12526,0.882,551
2022-04-09T04:36:33,42.805,6.029,CST-1368DR,4812,5647,12521,0.884,551
2022-04-09T04:39:35,42.805,6.029,CST-1368DR,4812,5637,12498,0.891,551
2022-04-09T04:42:37,42.805,6.029,CST-1368DR,4812,5647,12519,0.884,551
2022-04-09T04:45:38,42.805,6.029,CST-1368DR,4812,5645,12514,0.886,551
2022-04-09T04:48:40,42.805,6.029,CST-1368DR,4812,5652,12530,0.881,551
2022-04-09T04:51:41,42.805,6.029,CST-1368DR,4812,5644,12513,0.886,551
2022-04-09T04:54:43,42.805,6.029,CST-1368DR,4812,5649,12523,0.883,551
2022-04-09T04:57:44,42.805,6.029,CST-1368DR,4812,5646,12518,0.885,551
2022-04-09T05:00:46,42.805,6.029,CST-1368DR,4812,5645,12514,0.886,550
2022-04-09T05:03:48,42.805,6.029,CST-1368DR,4812,5648,12522,0.883,551
2022-04-09T05:06:49,42.805,6.029,CST-1368DR,4812,5624,12470,0.900,551
2022-04-09T05:09:51,42.805,6.029,CST-1368DR,4812,5627,12476,0.898,551
2022-04-09T05:12:52,42.805,6.029,CST-1368DR,4812,5644,12514,0.886,551
2022-04-09T05:15:54,42.805,6.029,CST-1368DR,4812,5657,12543,0.877,551
2022-04-09T05:18:56,42.805,6.029,CST-1368DR,4812,5642,12509,0.887,551
2022-04-09T05:21:57,42.805,6.029,CST-1368DR,4812,5643,12511,0.887,551
2022-04-09T05:24:59,42.805,6.029,CST-1368DR,4812,5648,12522,0.883,551
2022-04-09T05:28:00,42.805,6.029,CST-1368DR,4812,5635,12493,0.893,551
2022-04-09T05:31:02,42.805,6.029,CST-1368DR,4812,5639,12502,0.890,551
2022-04-09T05:34:03,42.805,6.029,CST-1368DR,4812,5636,12496,0.892,551
2022-04-09T05:37:05,42.805,6.029,CST-1368DR,4812,5631,12484,0.895,551
2022-04-09T05:40:07,42.805,6.029,CST-1368DR,4812,5641,12507,0.888,551
2022-04-09T05:43:08,42.805,6.029,CST-1368DR,4812,5632,12487,0.894,551
2022-04-09T05:46:10,42.805,6.029,CST-1368DR,4812,5633,12489,0.894,551
2022-04-09T05:49:11,42.805,6.029,CST-1368DR,4812,5638,12501,0.890,551
2022-04-09T05:52:13,42.805,6.029,CST-1368DR,4812,5641,12506,0.888,551
2022-04-09T05:55:14,42.805,6.029,CST-1368DR,4812,5632,12487,0.894,551
2022-04-09T05:58:16,42.805,6.029,CST-1368DR,4812,5640,12504,0.889,551
2022-04-09T06:01:18,42.805,6.029,CST-1368DR,4812,5639,12502,0.890,551
2022-04-09T06:04:19,42.805,6.029,CST-1368DR,4812,5637,12498,0.891,551
2022-04-09T06:07:21,42.805,6.029,CST-1368DR,4812,5635,12493,0.893,551
2022-04-09T06:10:22,42.805,6.029,CST-1368DR,4812,5637,12497,0.891,551
2022-04-09T06:13:24,42.805,6.029,CST-1368DR,4812,5642,12508,0.888,551
2022-04-09T06:16:26,42.805,6.029,CST-1368DR,4812,5634,12491,0.893,551
2022-04-09T06:19:27,42.805,6.029,CST-1368DR,4812,5638,12499,0.891,551
2022-04-09T06:22:29,42.805,6.029,CST-1368DR,4812,5633,12488,0.894,551
2022-04-09T06:25:30,42.805,6.029,CST-1368DR,4812,5641,12506,0.888,551
2022-04-09T06:28:32,42.805,6.029,CST-1368DR,4812,5646,12517,0.885,551
2022-04-09T06:31:33,42.805,6.029,CST-1368DR,4812,5644,12513,0.886,551
2022-04-09T06:34:35,42.805,6.029,CST-1368DR,4812,5651,12529,0.881,551
2022-04-09T06:37:37,42.805,6.029,CST-1368DR,4811,5611,12443,0.909,551
2022-04-09T06:40:38,42.805,6.029,CST-1368DR,4811,5580,12374,0.931,551
2022-04-09T06:43:40,42.805,6.029,CST-1368DR,4812,5640,12505,0.889,551
2022-04-09T06:46:41,42.805,6.029,CST-1368DR,4811,5645,12519,0.884,551
2022-04-09T06:49:43,42.805,6.029,CST-1368DR,4811,5625,12474,0.899,551
2022-04-09T06:52:44,42.805,6.029,CST-1368DR,4812,5642,12509,0.887,551
2022-04-09T06:55:46,42.805,6.029,CST-1368DR,4812,5662,12554,0.873,551
2022-04-09T06:58:48,42.805,6.029,CST-1368DR,4812,5647,12520,0.884,551
2022-04-09T07:01:49,42.805,6.029,CST-1368DR,4811,5626,12476,0.898,551
2022-04-09T07:04:51,42.805,6.029,CST-1368DR,4811,5632,12489,0.894,551
2022-04-09T07:07:52,42.805,6.029,CST-1368DR,4812,5641,12506,0.888,551
2022-04-09T07:10:54,42.805,6.029,CST-1368DR,4811,5634,12493,0.893,551
2022-04-09T07:13:56,42.805,6.029,CST-1368DR,4812,5652,12530,0.881,551
2022-04-09T07:16:57,42.805,6.029,CST-1368DR,4811,5640,12507,0.888,551
2022-04-09T07:19:59,42.805,6.029,CST-1368DR,4811,5642,12510,0.887,551
2022-04-09T07:23:00,42.805,6.029,CST-1368DR,4811,5629,12483,0.896,551
2022-04-09T07:26:02,42.805,6.029,CST-1368DR,4811,5636,12497,0.891,551
2022-04-09T07:29:03,42.805,6.029,CST-1368DR,4811,5643,12514,0.886,551
2022-04-09T07:32:05,42.805,6.029,CST-1368DR,4811,5645,12518,0.885,551
2022-04-09T07:35:07,42.805,6.029,CST-1368DR,4811,5633,12490,0.893,551
2022-04-09T07:38:08,42.805,6.029,CST-1368DR,4811,5637,12499,0.891,551
2022-04-09T07:41:10,42.805,6.029,CST-1368DR,4811,5637,12500,0.890,551
2022-04-09T07:44:11,42.805,6.029,CST-1368DR,4811,5637,12501,0.890,551
2022-04-09T07:47:13,42.805,6.029,CST-1368DR,4811,5629,12483,0.896,551
2022-04-09T07:50:14,42.805,6.029,CST-1368DR,4811,5627,12479,0.897,551
2022-04-09T07:53:16,42.805,6.029,CST-1368DR,4811,5634,12493,0.893,551
2022-04-09T07:56:18,42.805,6.029,CST-1368DR,4811,5625,12473,0.899,551
2022-04-09T07:59:19,42.805,6.029,CST-1368DR,4811,5630,12485,0.895,551
2022-04-09T08:02:21,42.805,6.029,CST-1368DR,4811,5636,12498,0.891,551
2022-04-09T08:05:22,42.805,6.029,CST-1368DR,4811,5638,12502,0.890,551
2022-04-09T08:08:24,42.805,6.029,CST-1368DR,4811,5640,12506,0.888,551
2022-04-09T08:11:26,42.805,6.029,CST-1368DR,4811,5639,12504,0.889,551
2022-04-09T08:14:27,42.805,6.029,CST-1368DR,4811,5633,12491,0.893,551
2022-04-09T08:17:29,42.805,6.029,CST-1368DR,4811,5632,12489,0.894,551
2022-04-09T08:20:30,42.805,6.029,CST-1368DR,4811,5626,12476,0.898,551
2022-04-09T08:23:32,42.805,6.029,CST-1368DR,4811,5634,12494,0.892,551
2022-04-09T08:26:33,42.805,6.029,CST-1368DR,4811,5637,12500,0.890,551
2022-04-09T08:29:35,42.805,6.029,CST-1368DR,4811,5630,12485,0.895,551
2022-04-09T08:32:37,42.805,6.029,CST-1368DR,4811,5632,12489,0.894,551
2022-04-09T08:35:38,42.805,6.029,CST-1368DR,4811,5644,12515,0.885,551
2022-04-09T08:38:40,42.805,6.029,CST-1368DR,4811,5629,12483,0.896,551
2022-04-09T08:41:41,42.805,6.029,CST-1368DR,4811,5626,12476,0.898,551
2022-04-09T08:44:43,42.805,6.029,CST-1368DR,4811,5634,12493,0.893,551
2022-04-09T08:47:44,42.805,6.029,CST-1368DR,4811,5630,12485,0.895,551
2022-04-09T08:50:46,42.805,6.029,CST-1368DR,4811,5635,12496,0.892,551
2022-04-09T08:53:48,42.805,6.029,CST-1368DR,4811,5624,12471,0.900,551
2022-04-09T08:56:49,42.805,6.029,CST-1368DR,4811,5633,12490,0.893,551
2022-04-09T08:59:51,42.805,6.029,CST-1368DR,4811,5635,12495,0.892,551
2022-04-09T09:02:52,42.805,6.029,CST-1368DR,4811,5637,12501,0.890,551
2022-04-09T09:05:54,42.805,6.029,CST-1368DR,4811,5643,12514,0.886,551
2022-04-09T09:08:56,42.805,6.029,CST-1368DR,4811,5627,12478,0.897,551
2022-04-09T09:11:57,42.805,6.029,CST-1368DR,4811,5628,12479,0.897,551
2022-04-09T09:14:59,42.805,6.029,CST-1368DR,4811,5632,12489,0.894,550
2022-04-09T09:18:00,42.805,6.029,CST-1368DR,4811,5643,12514,0.886,551
2022-04-09T09:21:02,42.805,6.029,CST-1368DR,4811,5643,12513,0.886,551
2022-04-09T09:24:03,42.805,6.029,CST-1368DR,4811,5644,12516,0.885,551
2022-04-09T09:27:05,42.805,6.029,CST-1368DR,4811,5629,12483,0.896,551
2022-04-09T09:30:07,42.805,6.029,CST-1368DR,4811,5634,12494,0.892,551
2022-04-09T09:33:08,42.805,6.029,CST-1368DR,4811,5632,12489,0.894,551
2022-04-09T09:36:10,42.805,6.029,CST-1368DR,4811,5634,12494,0.892,551
2022-04-09T09:39:11,42.805,6.029,CST-1368DR,4811,5633,12491,0.893,551
2022-04-09T09:42:13,42.805,6.029,CST-1368DR,4811,5629,12483,0.896,551
2022-04-09T09:45:14,42.805,6.029,CST-1368DR,4811,5618,12459,0.903,551
2022-04-09T09:48:16,42.805,6.029,CST-1368DR,4811,5630,12485,0.895,551
2022-04-09T09:51:18,42.805,6.029,CST-1368DR,4811,5644,12516,0.885,551
2022-04-09T09:54:19,42.805,6.029,CST-1368DR,4811,5630,12485,0.895,551
2022-04-09T09:57:21,42.805,6.029,CST-1368DR,4811,5635,12495,0.892,551
2022-04-09T10:00:22,42.805,6.029,CST-1368DR,4811,5620,12463,0.902,551
2022-04-09T10:03:24,42.805,6.029,CST-1368DR,4811,5625,12474,0.899,551
2022-04-09T10:06:26,42.805,6.029,CST-1368DR,4811,5634,12493,0.893,551
2022-04-09T10:09:27,42.805,6.029,CST-1368DR,4811,5636,12497,0.891,551
2022-04-09T10:12:29,42.805,6.029,CST-1368DR,4811,5638,12502,0.890,551
2022-04-09T10:15:30,42.805,6.029,CST-1368DR,4811,5652,12532,0.880,551
2022-04-09T10:18:32,42.805,6.029,CST-1368DR,4811,5637,12501,0.890,551
2022-04-09T10:21:33,42.805,6.029,CST-1368DR,4811,5634,12493,0.893,551
2022-04-09T10:24:35,42.805,6.029,CST-1368DR,4811,5638,12503,0.889,550
2022-04-09T10:27:37,42.805,6.029,CST-1368DR,4811,5632,12489,0.894,551
2022-04-09T10:30:38,42.805,6.029,CST-1368DR,4811,5630,12485,0.895,551
2022-04-09T10:33:40,42.805,6.029,CST-1368DR,4811,5637,12500,0.890,551
2022-04-09T10:36:41,42.805,6.029,CST-1368DR,4811,5635,12495,0.892,551
2022-04-09T10:39:43,42.805,6.029,CST-1368DR,4811,5629,12483,0.896,551
2022-04-09T10:42:44,42.805,6.029,CST-1368DR,4811,5637,12500,0.890,551
2022-04-09T10:45:46,42.805,6.029,CST-1368DR,4811,5629,12483,0.896,551
2022-04-09T10:48:48,42.805,6.029,CST-1368DR,4811,5656,12542,0.877,551
2022-04-09T10:51:49,42.805,6.029,CST-1368DR,4811,5647,12521,0.884,551
2022-04-09T10:54:51,42.805,6.029,CST-1368DR,4811,5644,12515,0.885,551
2022-04-09T10:57:52,42.805,6.029,CST-1368DR,4811,5651,12531,0.880,551
2022-04-09T11:00:54,42.805,6.029,CST-1368DR,4811,5648,12524,0.883,551
2022-04-09T11:03:56,42.805,6.029,CST-1368DR,4811,5645,12518,0.885,551
2022-04-09T11:06:57,42.805,6.029,CST-1368DR,4811,5635,12495,0.892,551
2022-04-09T11:09:59,42.805,6.029,CST-1368DR,4811,5627,12479,0.897,551
2022-04-09T11:13:00,42.805,6.029,CST-1368DR,4811,5630,12485,0.895,551
2022-04-09T11:16:02,42.805,6.029,CST-1368DR,4811,5632,12488,0.894,551
2022-04-09T11:19:03,42.805,6.029,CST-1368DR,4811,5640,12506,0.888,551
2022-04-09T11:22:05,42.805,6.029,CST-1368DR,4811,5647,12523,0.883,551
2022-04-09T11:25:07,42.805,6.029,CST-1368DR,4811,5645,12517,0.885,551
2022-04-09T11:28:08,42.805,6.029,CST-1368DR,4811,5619,12461,0.903,551
2022-04-09T11:31:10,42.805,6.029,CST-1368DR,4811,5629,12483,0.896,551
2022-04-09T11:34:11,42.805,6.029,CST-1368DR,4811,5640,12506,0.888,551
2022-04-09T11:37:13,42.805,6.029,CST-1368DR,4811,5660,12551,0.874,551
2022-04-09T11:40:14,42.805,6.029,CST-1368DR,4811,5645,12518,0.885,551
2022-04-09T11:43:16,42.805,6.029,CST-1368DR,4811,5634,12493,0.893,551
2022-04-09T11:46:18,42.805,6.029,CST-1368DR,4811,5633,12492,0.893,551
2022-04-09T11:49:19,42.805,6.029,CST-1368DR,4811,5647,12521,0.884,551
2022-04-09T11:52:21,42.805,6.029,CST-1368DR,4811,5642,12511,0.887,551
2022-04-09T11:55:22,42.805,6.029,CST-1368DR,4811,5642,12511,0.887,551
2022-04-09T11:58:24,42.805,6.029,CST-1368DR,4811,5628,12481,0.896,551
2022-04-09T12:01:26,42.805,6.029,CST-1368DR,4811,5636,12499,0.891,551
2022-04-09T12:04:27,42.805,6.029,CST-1368DR,4811,5630,12485,0.895,551
2022-04-09T12:07:29,42.805,6.029,CST-1368DR,4811,5631,12488,0.894,551
2022-04-09T12:10:30,42.805,6.029,CST-1368DR,4811,5641,12508,0.888,551
2022-04-09T12:13:32,42.805,6.029,CST-1368DR,4811,5631,12486,0.895,551
2022-04-09T12:16:33,42.805,6.029,CST-1368DR,4811,5631,12486,0.895,551
2022-04-09T12:19:35,42.805,6.029,CST-1368DR,4811,5632,12489,0.894,551
2022-04-09T12:22:37,42.805,6.029,CST-1368DR,4811,5625,12473,0.899,550
2022-04-09T12:25:38,42.805,6.029,CST-1368DR,4811,5635,12496,0.892,551
2022-04-09T12:28:40,42.805,6.029,CST-1368DR,4811,5635,12495,0.892,551
2022-04-09T12:31:41,42.805,6.029,CST-1368DR,4811,5663,12557,0.872,551
2022-04-09T12:34:43,42.805,6.029,CST-1368DR,4811,5649,12526,0.882,551
2022-04-09T12:37:44,42.805,6.029,CST-1368DR,4811,5634,12493,0.893,551
2022-04-09T12:40:46,42.805,6.029,CST-1368DR,4811,5637,12499,0.891,551
2022-04-09T12:43:48,42.805,6.029,CST-1368DR,4811,5648,12525,0.882,551
2022-04-09T12:46:49,42.805,6.029,CST-1368DR,4811,5635,12496,0.892,551
2022-04-09T12:49:51,42.805,6.029,CST-1368DR,4811,5656,12542,0.877,551
2022-04-09T12:52:52,42.805,6.029,CST-1368DR,4811,5635,12495,0.892,551
2022-04-09T12:55:54,42.805,6.029,CST-1368DR,4811,5653,12536,0.879,551
2022-04-09T12:58:56,42.805,6.029,CST-1368DR,4811,5636,12499,0.891,551
2022-04-09T13:01:57,42.805,6.029,CST-1368DR,4811,5643,12514,0.886,551
2022-04-09T13:04:59,42.805,6.029,CST-1368DR,4811,5651,12530,0.881,551
2022-04-09T13:08:00,42.805,6.029,CST-1368DR,4811,5644,12515,0.885,551
2022-04-09T13:11:02,42.805,6.029,CST-1368DR,4811,5655,12540,0.877,551
2022-04-09T13:14:03,42.805,6.029,CST-1368DR,4811,5641,12509,0.887,551
2022-04-09T13:17:05,42.805,6.029,CST-1368DR,4811,5658,12547,0.875,551
2022-04-09T13:20:07,42.805,6.029,CST-1368DR,4811,5660,12552,0.874,551
2022-04-09T13:23:08,42.805,6.029,CST-1368DR,4811,5658,12547,0.875,551
2022-04-09T13:26:10,42.805,6.029,CST-1368DR,4811,5648,12524,0.883,551
2022-04-09T13:29:11,42.805,6.029,CST-1368DR,4811,5651,12530,0.881,551
2022-04-09T13:32:13,42.805,6.029,CST-1368DR,4811,5648,12524,0.883,551
2022-04-09T13:35:14,42.805,6.029,CST-1368DR,4811,5648,12525,0.882,551
2022-04-09T13:38:16,42.805,6.029,CST-1368DR,4811,5649,12527,0.882,551
2022-04-09T13:41:18,42.805,6.029,CST-1368DR,4811,5668,12570,0.868,551
2022-04-09T13:44:19,42.805,6.029,CST-1368DR,4811,5638,12501,0.890,551
2022-04-09T13:47:21,42.805,6.029,CST-1368DR,4811,5668,12568,0.869,551
2022-04-09T13:50:22,42.805,6.029,CST-1368DR,4811,5667,12567,0.869,551
2022-04-09T13:53:24,42.805,6.029,CST-1368DR,4811,5652,12534,0.879,551
2022-04-09T13:56:26,42.805,6.029,CST-1368DR,4811,5661,12553,0.873,551
2022-04-09T13:59:27,42.805,6.029,CST-1368DR,4811,5664,12560,0.871,551
2022-04-09T14:02:29,42.805,6.029,CST-1368DR,4811,5664,12561,0.871,551
2022-04-09T14:05:30,42.805,6.029,CST-1368DR,4811,5646,12521,0.884,551
2022-04-09T14:08:32,42.805,6.029,CST-1368DR,4811,5654,12539,0.878,551
2022-04-09T14:11:33,42.805,6.029,CST-1368DR,4811,5667,12567,0.869,551
2022-04-09T14:14:35,42.805,6.029,CST-1368DR,4811,5670,12573,0.867,551
2022-04-09T14:17:37,42.805,6.029,CST-1368DR,4811,5669,12571,0.868,551
2022-04-09T14:20:38,42.805,6.029,CST-1368DR,4811,5671,12575,0.866,551
2022-04-09T14:23:40,42.805,6.029,CST-1368DR,4811,5647,12522,0.883,551
2022-04-09T14:26:41,42.805,6.029,CST-1368DR,4811,5658,12546,0.876,551
2022-04-09T14:29:43,42.805,6.029,CST-1368DR,4811,5658,12546,0.876,551
2022-04-09T14:32:44,42.805,6.029,CST-1368DR,4811,5669,12571,0.868,551
2022-04-09T14:35:46,42.805,6.029,CST-1368DR,4811,5661,12553,0.873,551
2022-04-09T14:38:48,42.805,6.029,CST-1368DR,4811,5653,12536,0.879,551
2022-04-09T14:41:49,42.805,6.029,CST-1368DR,4811,5672,12578,0.865,551
2022-04-09T14:44:51,42.805,6.029,CST-1368DR,4811,5660,12551,0.874,551
2022-04-09T14:47:52,42.805,6.029,CST-1368DR,4811,5648,12524,0.883,551
2022-04-09T14:50:54,42.805,6.029,CST-1368DR,4811,5668,12568,0.869,551
2022-04-09T14:53:56,42.805,6.029,CST-1368DR,4811,5667,12566,0.869,551
2022-04-09T14:56:57,42.805,6.029,CST-1368DR,4811,5668,12570,0.868,551
2022-04-09T14:59:59,42.805,6.029,CST-1368DR,4811,5657,12544,0.876,551
2022-04-09T15:03:00,42.805,6.029,CST-1368DR,4811,5652,12534,0.879,551
2022-04-09T15:06:02,42.805,6.029,CST-1368DR,4811,5657,12545,0.876,551
2022-04-09T15:09:03,42.805,6.029,CST-1368DR,4811,5653,12536,0.879,551
2022-04-09T15:12:05,42.805,6.029,CST-1368DR,4810,5640,12510,0.887,551
2022-04-09T15:15:07,42.805,6.029,CST-1368DR,4810,5648,12526,0.882,551
2022-04-09T15:18:08,42.805,6.029,CST-1368DR,4810,5634,12497,0.891,551
2022-04-09T15:21:10,42.805,6.029,CST-1368DR,4811,5663,12558,0.872,551
2022-04-09T15:24:11,42.805,6.029,CST-1368DR,4810,5638,12504,0.889,551
2022-04-09T15:27:13,42.805,6.029,CST-1368DR,4810,5646,12522,0.883,551
2022-04-09T15:30:14,42.805,6.029,CST-1368DR,4810,5658,12550,0.874,551
2022-04-09T15:33:16,42.805,6.029,CST-1368DR,4810,5632,12491,0.893,551
2022-04-09T15:36:18,42.805,6.029,CST-1368DR,4810,5651,12533,0.880,551
2022-04-09T15:39:19,42.805,6.029,CST-1368DR,4810,5644,12519,0.884,551
2022-04-09T15:42:21,42.805,6.029,CST-1368DR,4810,5633,12494,0.892,551
2022-04-09T15:45:22,42.805,6.029,CST-1368DR,4810,5638,12505,0.889,551
2022-04-09T15:48:24,42.805,6.029,CST-1368DR,4810,5635,12499,0.891,551
2022-04-09T15:51:26,42.805,6.029,CST-1368DR,4810,5635,12499,0.891,551
2022-04-09T15:54:27,42.805,6.029,CST-1368DR,4810,5654,12540,0.877,551
2022-04-09T15:57:29,42.805,6.029,CST-1368DR,4810,5646,12523,0.883,551
2022-04-09T16:00:30,42.805,6.029,CST-1368DR,4811,5668,12568,0.869,551
2022-04-09T16:03:32,42.805,6.029,CST-1368DR,4810,5650,12530,0.881,551
2022-04-09T16:06:33,42.805,6.029,CST-1368DR,4810,5654,12539,0.878,551
2022-04-09T16:09:35,42.805,6.029,CST-1368DR,4810,5652,12536,0.879,551
2022-04-09T16:12:37,42.805,6.029,CST-1368DR,4810,5644,12518,0.885,551
2022-04-09T16:15:38,42.805,6.029,CST-1368DR,4811,5662,12556,0.872,551
2022-04-09T16:18:40,42.805,6.029,CST-1368DR,4811,5669,12570,0.868,551
2022-04-09T16:21:41,42.805,6.029,CST-1368DR,4811,5666,12565,0.870,551
2022-04-09T16:24:43,42.805,6.029,CST-1368DR,4811,5672,12578,0.865,551
2022-04-09T16:27:44,42.805,6.029,CST-1368DR,4811,5672,12578,0.865,551
2022-04-09T16:30:46,42.805,6.029,CST-1368DR,4811,5668,12569,0.868,551
2022-04-09T16:33:48,42.805,6.029,CST-1368DR,4811,5664,12560,0.871,551
2022-04-09T16:36:49,42.805,6.029,CST-1368DR,4811,5671,12576,0.866,551
2022-04-09T16:39:51,42.805,6.029,CST-1368DR,4810,5649,12529,0.881,551
2022-04-09T16:42:52,42.805,6.029,CST-1368DR,4810,5663,12560,0.871,551
2022-04-09T16:45:54,42.805,6.029,CST-1368DR,4810,5663,12560,0.871,551
2022-04-09T16:48:56,42.805,6.029,CST-1368DR,4810,5650,12532,0.880,551
2022-04-09T16:51:57,42.805,6.029,CST-1368DR,4810,5660,12553,0.873,551
2022-04-09T16:54:59,42.805,6.029,CST-1368DR,4810,5657,12546,0.876,551
2022-04-09T16:58:00,42.805,6.029,CST-1368DR,4810,5668,12570,0.868,551
2022-04-09T17:01:02,42.805,6.029,CST-1368DR,4810,5652,12535,0.879,551
2022-04-09T17:04:03,42.805,6.029,CST-1368DR,4810,5648,12527,0.882,551
2022-04-09T17:07:05,42.805,6.029,CST-1368DR,4810,5649,12529,0.881,551
2022-04-09T17:10:07,42.805,6.029,CST-1368DR,4810,5653,12538,0.878,551